軌道要素
Epoch 2013 Apr. 18.0 TT = JDT 2456400.5
T 2013 Mar. 31.28504 TT MPC
q 4.7481549 (2000.0) P Q
n 0.01046752 Peri. 215.62769 -0.49665800 -0.66236650
a 20.6969734 Node 271.02302 +0.86771521 -0.36400748
e 0.7705870 Incl. 34.12380 +0.02002855 -0.65480469
P 94.2
From 180 observations 2012 Jan. 11-2014 Apr. 24, mean residual 0".4.
|